Location: Maiden_LMO
(35.5760°N, 81.2120°W)
Time: 07:02:48
(UTC-04:00)

Daily predictions for brighter satellites

Satellite Brightness Start Highest point End
(mag) Time Altitude Azimuth Time Altitude Azimuth Time Altitude Azimuth
Meteor 2-14 Rocket 4.5 19:02:34 10° S 19:08:41 86° E 19:14:47 10° N
Cosmos 2360 Rocket 2.9 19:03:42 10° N 19:08:42 31° ENE 19:13:40 10° ESE
Cosmos 1727 Rocket 4.3 19:03:19 10° N 19:09:22 44° E 19:15:22 10° SSE
Cosmos 1833 4.3 19:05:38 10° S 19:11:15 62° ESE 19:16:49 10° NNE
SL-8 R/B 4.0 19:07:20 10° WSW 19:12:07 71° NW 19:16:57 10° NE
Meteor 2-16 Rocket 4.4 19:06:15 10° S 19:12:20 78° E 19:18:28 10° N
Cosmos-2242 3.9 19:08:47 10° SSW 19:12:58 55° W 19:17:09 10° N
Cosmos 2219 4.4 19:10:57 10° SE 19:15:02 20° E 19:19:07 10° NE
ISS -2.1 19:12:06 10° WNW 19:15:09 36° SW 19:18:11 10° SSE
Cosmos 2322 Rocket 2.3 19:10:40 10° NNW 19:16:18 88° WSW 19:21:55 10° SSE
Tiangong 1 1.9 19:13:59 10° WNW 19:16:33 40° SSW 19:19:06 10° SE
Cosmos 1624 Rocket 4.0 19:14:35 10° NNW 19:19:49 90° WSW 19:25:04 10° SSE
MTI 4.3 19:17:58 10° N 19:21:08 62° WNW 19:24:17 10° SSW
GP-B 3.1 19:17:28 10° N 19:21:54 67° E 19:26:18 10° S
Cosmos 1371 Rocket 4.5 19:17:26 10° NNW 19:22:47 69° WSW 19:28:04 10° S
Cosmos 1315 Rocket 3.8 19:19:28 10° NNE 19:22:55 26° ENE 19:26:21 10° SE
Cosmos 2151 3.2 19:20:02 10° N 19:24:09 45° E 19:28:13 10° SSE
Meteor 2-1 Rocket 4.3 19:20:58 10° S 19:26:36 62° E 19:32:24 10° NNE
GRACE-2 4.4 19:25:18 10° SSE 19:27:38 31° E 19:29:59 10° NNE
CZ-4C R/B 2.9 19:25:22 10° S 19:29:38 28° ESE 19:34:17 10° NE
GRACE-1 4.2 19:27:57 10° SSE 19:30:21 37° E 19:32:47 10° NNE
Thor Agena Rocket 4.2 19:26:16 10° NE 19:30:46 31° E 19:35:12 10° SSE
APEX 3.7 19:29:12 10° S 19:32:16 28° ESE 19:34:24 14° NE
SKYMED 2 3.6 19:28:24 10° NNE 19:32:45 90° WNW 19:37:05 10° SSW
FALCON 9 R/B 2.9 19:31:14 10° WSW 19:32:55 17° SSW 19:35:14 10° SSE
EO 1 Del DPAF 3.8 19:29:37 10° N 19:33:25 63° WNW 19:37:13 10° SSW
FENGYUN 3A 4.0 19:30:05 10° SE 19:35:09 44° ENE 19:40:16 10° N
Meteor 1-11 4.5 19:31:07 10° N 19:36:54 79° W 19:42:36 10° S
Cosmos 1743 Rocket 3.5 19:33:03 10° N 19:37:27 90° WSW 19:41:52 10° S
Delta 2 Rocket 2.9 19:34:56 10° W 19:38:43 85° S 19:41:02 20° E
Cosmos 2322 4.0 19:33:39 10° N 19:39:08 45° ENE 19:44:34 10° SE
Cosmos 158 Rocket 4.1 19:35:48 10° S 19:40:35 49° ESE 19:45:32 10° NNE
Cosmos 1842 Rocket 3.9 19:37:46 10° SSW 19:42:13 69° W 19:46:41 10° N
RESURS DK-1 2.6 19:38:47 10° N 19:42:47 46° ENE 19:46:44 10° SE
SJ-6B 4.4 19:45:28 16° NE 19:45:28 16° NE 19:47:07 10° NNE
Cosmos 2221 2.6 19:40:39 10° SSE 19:44:48 50° E 19:49:00 10° NNE
ALOS 2.3 19:41:18 10° SSE 19:45:51 56° ENE 19:50:26 10° N
Cosmos 2058 2.9 19:43:33 10° N 19:47:45 89° E 19:51:53 10° S
Atlas Centaur 2 2.6 19:49:42 10° WSW 19:54:13 46° S 19:58:05 19° ESE
ASTRO E2 3.3 19:52:07 10° WSW 19:55:57 46° S 19:57:53 25° ESE
Cosmos 921 Rocket 3.0 19:52:27 10° N 19:56:52 60° ENE 20:01:09 10° SSE
Cosmos 2219 Rocket 3.3 19:53:40 10° N 19:57:54 22° ENE 19:58:26 21° ENE
Cosmos 1500 Rocket 3.9 19:54:46 10° NNW 19:59:04 66° W 20:03:20 10° S
Cosmos 1703 3.9 19:55:36 10° NNW 19:59:28 58° W 20:03:17 10° S
SPOT 3 Rocket 4.0 19:58:08 10° S 20:03:16 66° WSW 20:08:28 10° NNW
Cosmos 1269 Rocket 4.0 19:59:39 10° S 20:04:49 60° ESE 20:10:01 10° NNE
Cosmos 1726 2.1 20:04:43 10° S 20:08:19 54° E 20:11:57 10° NNE
Cosmos 1535 Rocket 4.4 20:02:50 10° S 20:08:50 58° E 20:14:49 10° NNE
Meteor 2-10 4.3 20:06:19 10° SSE 20:10:57 39° E 20:15:39 10° NNE
SL-16 R/B 4.4 20:06:24 10° NW 20:11:06 27° WSW 20:15:48 10° SSW
Cosmos 1908 4.0 20:08:27 10° SSW 20:12:16 53° W 20:16:07 10° N
OAO 1 Rocket 4.4 20:07:06 10° WSW 20:12:24 77° S 20:14:32 37° E
USA 267 3.3 20:09:11 19° NE 20:13:57 61° SE 20:20:23 10° SSW
Cosmos 2333 4.5 20:09:16 10° N 20:14:47 46° ENE 20:16:57 32° ESE
Cosmos 2237 4.1 20:10:57 10° NNW 20:16:42 77° ENE 20:22:06 12° SSE
Cosmos 2098 Rocket 3.0 20:14:20 10° S 20:18:23 84° E 20:23:39 10° N
H-2A R/B 2.6 20:19:23 46° SE 20:20:21 67° ENE 20:24:14 10° N
Cosmos 44 3.2 20:17:16 10° SW 20:21:38 71° WNW 20:24:23 22° NNE
Cosmos 1452 Rocket 4.0 20:20:14 10° NNW 20:25:24 60° WSW 20:30:33 10° S
Cosmos 2237 Rocket 3.8 20:24:49 10° N 20:27:16 18° NNE 20:27:16 18° NNE
Sich 1 4.1 20:26:20 10° N 20:28:51 31° NNE 20:28:51 31° NNE
Cosmos 2227 Rocket 3.9 20:28:40 10° SSE 20:30:08 17° SSE 20:30:08 17° SSE
SL-24 R/B - RUBIN 2 4.2 20:30:14 10° NW 20:34:49 55° WSW 20:37:01 27° S
Meteor 2-2 Rocket 4.2 20:30:52 10° S 20:36:27 54° E 20:41:57 10° NNE
Cosmos 1805 Rocket 3.5 20:33:09 10° N 20:37:33 82° W 20:39:29 33° S
Cosmos 1821 Rocket 4.2 20:33:58 10° SSW 20:40:03 68° W 20:46:16 10° N
Cosmos 44 Rocket 4.1 20:36:29 10° SW 20:41:02 48° WNW 20:43:51 21° N
Cosmos 1934 Rocket 4.0 20:39:16 10° S 20:45:37 83° W 20:52:02 10° N
DELTA 2 R/B (1) 3.4 20:42:15 10° WNW 20:47:52 86° NNE 20:48:16 77° E
Centaur AC-112 4.4 20:47:04 10° WSW 20:49:56 18° SSW 20:49:56 18° SSW
Cosmos 2360 Rocket 3.9 20:47:39 10° NW 20:52:36 32° WSW 20:57:31 10° SSW
COSMOS 2428 2.7 20:47:17 10° NNW 20:52:58 79° WSW 20:54:29 50° S
Cosmos 2333 Rocket 2.8 20:50:46 10° NNW 20:54:58 44° NNE 20:54:58 44° NNE
Cosmos 2219 4.1 20:53:13 10° SW 20:58:44 48° WNW 21:04:18 10° N
Cosmos 2123 Rocket 4.1 21:06:12 10° NNW 21:12:24 71° W 21:14:34 42° SSW
Cosmos 1605 Rocket 4.1 21:08:09 10° SSW 21:14:15 72° W 21:20:20 10° N
CZ-4C R/B 3.5 21:13:09 10° WSW 21:17:52 34° NW 21:20:08 25° N
MOS 1-B Rocket 4.1 21:19:10 64° NW 21:19:10 64° NW 21:24:20 10° NNW
Cosmos 2219 Rocket 3.6 21:36:43 10° NNW 21:40:13 35° WNW 21:40:13 35° WNW
Atlas Centaur 2 4.0 21:38:12 10° WSW 21:40:43 23° SW 21:40:43 23° SW
USA 267 4.3 21:56:34 37° NNW 21:56:42 37° NW 22:02:34 10° W
